• In Hungary
  • List of Countries
  • For 7 days
  • Water Temperature
  • Satellite Maps
  • Weather Map
  • News
  • Weather Widgets
  • user-avatar
    Login

    Hourly Weather San José de Maipo

    Today, 19 February, Monday

    Time Temperature Precipitation Wind Pressure Humidity
    00:00 +14°C° 0 mm 1 mps 607 mmHg 65%
    01:00 +13°C° 0 mm 1 mps 607 mmHg 65%
    02:00 +13°C° 0 mm 1 mps 606 mmHg 65%
    03:00 +13°C° 0 mm 1 mps 606 mmHg 65%
    04:00 +13°C° 0 mm 1 mps 606 mmHg 65%
    05:00 +13°C° 0 mm 1 mps 606 mmHg 61%
    06:00 +14°C° 0 mm 1 mps 607 mmHg 56%
    07:00 +15°C° 0 mm 1 mps 607 mmHg 52%
    08:00 +16°C° 0 mm 2 mps 608 mmHg 45%
    09:00 +18°C° 0 mm 2 mps 608 mmHg 38%
    10:00 +19°C° 0 mm 3 mps 609 mmHg 31%
    11:00 +20°C° 0 mm 3 mps 609 mmHg 30%
    12:00 +21°C° 0 mm 4 mps 609 mmHg 30%
    13:00 +21°C° 0 mm 4 mps 609 mmHg 29%
    14:00 +21°C° 0.1 mm 4 mps 609 mmHg 32%
    15:00 +20°C° 0.1 mm 4 mps 609 mmHg 35%
    16:00 +20°C° 0.1 mm 4 mps 608 mmHg 38%
    17:00 +18°C° 0.2 mm 3 mps 608 mmHg 45%
    18:00 +17°C° 0.2 mm 3 mps 608 mmHg 51%
    19:00 +15°C° 0.2 mm 2 mps 608 mmHg 57%
    20:00 +15°C° 0.1 mm 2 mps 608 mmHg 60%
    21:00 +14°C° 0.1 mm 2 mps 608 mmHg 62%
    22:00 +13°C° 0.1 mm 1 mps 608 mmHg 64%
    23:00 +13°C° 0 mm 1 mps 607 mmHg 64%

    Tomorrow, 20 February, Tuesday

    Time Temperature Precipitation Wind Pressure Humidity
    00:00 +13°C° 0 mm 1 mps 607 mmHg 64%
    01:00 +13°C° 0 mm 1 mps 607 mmHg 64%
    02:00 +12°C° 0 mm 1 mps 607 mmHg 64%
    03:00 +12°C° 0 mm 1 mps 607 mmHg 64%
    04:00 +12°C° 0 mm 1 mps 607 mmHg 64%
    05:00 +13°C° 0 mm 1 mps 608 mmHg 58%
    06:00 +14°C° 0 mm 1 mps 608 mmHg 51%
    07:00 +14°C° 0 mm 1 mps 609 mmHg 45%
    08:00 +16°C° 0 mm 2 mps 610 mmHg 39%
    09:00 +18°C° 0 mm 2 mps 610 mmHg 32%
    10:00 +19°C° 0 mm 3 mps 611 mmHg 25%
    11:00 +20°C° 0 mm 3 mps 611 mmHg 23%
    12:00 +21°C° 0 mm 3 mps 611 mmHg 21%
    13:00 +22°C° 0 mm 3 mps 612 mmHg 20%
    14:00 +22°C° 0 mm 3 mps 611 mmHg 20%
    15:00 +21°C° 0 mm 3 mps 611 mmHg 20%
    16:00 +21°C° 0 mm 3 mps 611 mmHg 21%
    17:00 +20°C° 0 mm 3 mps 611 mmHg 25%
    18:00 +19°C° 0 mm 2 mps 611 mmHg 28%
    19:00 +17°C° 0 mm 2 mps 611 mmHg 32%
    20:00 +18°C° 0 mm 1 mps 611 mmHg 34%
    21:00 +16°C° 0 mm 1 mps 611 mmHg 35%
    22:00 +14°C° 0 mm 0 mps 611 mmHg 37%
    23:00 +14°C° 0 mm 0 mps 610 mmHg 36%

    Day after tomorrow, 21 February, Wednesday

    Time Temperature Precipitation Wind Pressure Humidity
    00:00 +14°C° 0 mm 0 mps 610 mmHg 35%
    01:00 +13°C° 0 mm 0 mps 609 mmHg 34%
    02:00 +13°C° 0 mm 0 mps 609 mmHg 33%
    03:00 +13°C° 0 mm 1 mps 609 mmHg 32%
    04:00 +13°C° 0 mm 1 mps 609 mmHg 31%
    05:00 +14°C° 0 mm 1 mps 609 mmHg 28%
    06:00 +16°C° 0 mm 1 mps 610 mmHg 24%
    07:00 +18°C° 0 mm 1 mps 611 mmHg 21%
    08:00 +20°C° 0 mm 1 mps 612 mmHg 18%
    09:00 +20°C° 0 mm 2 mps 612 mmHg 15%
    10:00 +23°C° 0 mm 2 mps 613 mmHg 12%
    11:00 +24°C° 0 mm 3 mps 613 mmHg 12%
    12:00 +24°C° 0 mm 3 mps 613 mmHg 12%
    13:00 +25°C° 0 mm 3 mps 613 mmHg 12%
    14:00 +25°C° 0 mm 4 mps 612 mmHg 14%
    15:00 +23°C° 0 mm 4 mps 612 mmHg 16%
    16:00 +23°C° 0 mm 4 mps 612 mmHg 17%
    17:00 +21°C° 0 mm 3 mps 611 mmHg 23%
    18:00 +19°C° 0 mm 3 mps 611 mmHg 28%
    19:00 +18°C° 0 mm 2 mps 610 mmHg 34%
    20:00 +17°C° 0 mm 2 mps 610 mmHg 36%
    21:00 +16°C° 0 mm 1 mps 610 mmHg 38%
    22:00 +16°C° 0 mm 1 mps 610 mmHg 40%
    23:00 +14°C° 0 mm 0 mps 610 mmHg 40%

    22 February, Thursday

    Time Temperature Precipitation Wind Pressure Humidity
    00:00 +14°C° 0 mm 0 mps 609 mmHg 39%
    01:00 +13°C° 0 mm 0 mps 609 mmHg 39%
    02:00 +13°C° 0 mm 0 mps 608 mmHg 38%
    03:00 +12°C° 0 mm 0 mps 608 mmHg 37%
    04:00 +12°C° 0 mm 0 mps 608 mmHg 36%
    05:00 +14°C° 0 mm 1 mps 609 mmHg 33%
    06:00 +16°C° 0 mm 1 mps 609 mmHg 29%
    07:00 +18°C° 0 mm 1 mps 610 mmHg 26%
    08:00 +19°C° 0 mm 1 mps 611 mmHg 22%
    09:00 +20°C° 0 mm 2 mps 611 mmHg 19%
    10:00 +21°C° 0 mm 3 mps 612 mmHg 16%
    11:00 +22°C° 0 mm 3 mps 612 mmHg 15%
    12:00 +22°C° 0 mm 3 mps 612 mmHg 15%
    13:00 +23°C° 0 mm 4 mps 612 mmHg 15%
    14:00 +23°C° 0 mm 4 mps 611 mmHg 16%
    15:00 +22°C° 0 mm 4 mps 611 mmHg 18%
    16:00 +22°C° 0 mm 4 mps 610 mmHg 19%
    17:00 +20°C° 0 mm 3 mps 610 mmHg 23%
    18:00 +19°C° 0 mm 2 mps 610 mmHg 27%
    19:00 +17°C° 0 mm 2 mps 610 mmHg 30%
    20:00 +17°C° 0 mm 2 mps 610 mmHg 32%
    21:00 +16°C° 0 mm 1 mps 610 mmHg 34%
    22:00 +16°C° 0 mm 1 mps 610 mmHg 36%
    23:00 +15°C° 0 mm 1 mps 610 mmHg 36%

    23 February, Friday

    Time Temperature Precipitation Wind Pressure Humidity
    00:00 +15°C° 0 mm 1 mps 609 mmHg 35%
    01:00 +15°C° 0 mm 1 mps 609 mmHg 34%
    02:00 +15°C° 0 mm 1 mps 609 mmHg 33%
    03:00 +15°C° 0 mm 1 mps 609 mmHg 32%
    04:00 +14°C° 0 mm 1 mps 609 mmHg 31%
    05:00 +15°C° 0 mm 1 mps 609 mmHg 29%
    06:00 +16°C° 0 mm 1 mps 610 mmHg 27%
    07:00 +18°C° 0 mm 1 mps 610 mmHg 25%
    08:00 +19°C° 0 mm 1 mps 611 mmHg 23%
    09:00 +20°C° 0 mm 2 mps 611 mmHg 21%
    10:00 +21°C° 0 mm 2 mps 612 mmHg 20%
    11:00 +22°C° 0 mm 3 mps 612 mmHg 19%
    12:00 +24°C° 0 mm 3 mps 612 mmHg 19%
    13:00 +24°C° 0 mm 3 mps 612 mmHg 18%
    14:00 +24°C° 0 mm 3 mps 612 mmHg 19%
    15:00 +24°C° 0 mm 3 mps 612 mmHg 20%
    16:00 +24°C° 0 mm 3 mps 612 mmHg 21%
    17:00 +21°C° 0 mm 3 mps 611 mmHg 25%
    18:00 +19°C° 0 mm 2 mps 611 mmHg 29%
    19:00 +18°C° 0 mm 2 mps 611 mmHg 33%
    20:00 +18°C° 0 mm 1 mps 611 mmHg 36%
    21:00 +18°C° 0 mm 1 mps 611 mmHg 38%
    22:00 +16°C° 0 mm 1 mps 610 mmHg 41%
    23:00 +16°C° 0 mm 1 mps 610 mmHg 42%

    24 February, Saturday

    Time Temperature Precipitation Wind Pressure Humidity
    00:00 +15°C° 0 mm 1 mps 610 mmHg 42%
    01:00 +14°C° 0 mm 0 mps 609 mmHg 43%
    02:00 +14°C° 0 mm 0 mps 609 mmHg 44%
    03:00 +13°C° 0 mm 0 mps 609 mmHg 45%
    04:00 +13°C° 0 mm 0 mps 609 mmHg 46%
    05:00 +14°C° 0 mm 0 mps 609 mmHg 42%
    06:00 +16°C° 0 mm 1 mps 610 mmHg 38%
    07:00 +18°C° 0 mm 1 mps 611 mmHg 35%
    08:00 +20°C° 0 mm 1 mps 611 mmHg 31%
    09:00 +20°C° 0 mm 2 mps 611 mmHg 27%
    10:00 +21°C° 0 mm 2 mps 612 mmHg 23%
    11:00 +22°C° 0 mm 3 mps 612 mmHg 22%
    12:00 +24°C° 0 mm 3 mps 612 mmHg 22%
    13:00 +24°C° 0 mm 3 mps 612 mmHg 22%
    14:00 +24°C° 0 mm 3 mps 612 mmHg 24%
    15:00 +22°C° 0 mm 3 mps 612 mmHg 26%
    16:00 +22°C° 0 mm 3 mps 611 mmHg 28%
    17:00 +20°C° 0 mm 3 mps 611 mmHg 33%
    18:00 +19°C° 0 mm 2 mps 611 mmHg 39%
    19:00 +17°C° 0 mm 2 mps 610 mmHg 44%
    20:00 +18°C° 0 mm 1 mps 610 mmHg 46%
    21:00 +16°C° 0 mm 1 mps 610 mmHg 48%
    22:00 +16°C° 0 mm 1 mps 610 mmHg 50%
    23:00 +16°C° 0 mm 1 mps 609 mmHg 51%
    Show more